timestamp,wind_dir_avg,wind_spd_avg,wind_spd_max_dir,wind_spd_gust,battery_voltage,lat,long
2020-12-06 00:04:01+00:00,198.0,6.2,200.0,6.74,12.49,47.59359,-54.27349
2020-12-06 00:14:01+00:00,198.0,5.91,202.0,6.54,12.49,47.59359,-54.27349
2020-12-06 00:24:01+00:00,203.0,6.71,201.0,7.5,12.49,47.59359,-54.27349
2020-12-06 00:34:01+00:00,199.0,6.02,202.0,6.78,12.49,47.59359,-54.27349
2020-12-06 00:44:01+00:00,202.0,5.18,202.0,5.74,12.49,47.59359,-54.27349
2020-12-06 00:54:01+00:00,203.0,5.45,202.0,6.02,12.49,47.59359,-54.27349
2020-12-06 01:04:01+00:00,194.0,6.52,197.0,7.17,12.49,47.59359,-54.27349
2020-12-06 01:14:01+00:00,197.0,6.35,200.0,6.92,12.49,47.59359,-54.27349
2020-12-06 01:24:01+00:00,201.0,6.15,201.0,6.65,12.49,47.59359,-54.27349
2020-12-06 01:34:01+00:00,215.0,5.86,216.0,6.65,12.49,47.59359,-54.27349
2020-12-06 01:44:01+00:00,212.0,5.32,211.0,6.02,12.49,47.59359,-54.27349
2020-12-06 01:54:01+00:00,229.0,6.02,231.0,6.85,12.49,47.59359,-54.27349
2020-12-06 02:04:01+00:00,231.0,6.52,237.0,8.52,12.49,47.59359,-54.27349
2020-12-06 02:14:01+00:00,226.0,5.87,229.0,7.0,12.41,47.59359,-54.27349
2020-12-06 02:24:01+00:00,215.0,3.91,216.0,4.61,12.41,47.59359,-54.27349
2020-12-06 02:34:01+00:00,224.0,3.64,226.0,4.72,12.41,47.59359,-54.27349
2020-12-06 02:44:01+00:00,226.0,3.33,222.0,3.86,12.41,47.59359,-54.27349
2020-12-06 02:54:01+00:00,229.0,4.36,230.0,4.8,12.41,47.59359,-54.27349
2020-12-06 03:04:01+00:00,223.0,2.87,218.0,3.24,12.41,47.59359,-54.27349
2020-12-06 03:14:01+00:00,222.0,2.18,229.0,2.7,12.41,47.59359,-54.27349
2020-12-06 03:24:01+00:00,237.0,2.45,235.0,2.78,12.41,47.59359,-54.27349
2020-12-06 03:34:01+00:00,244.0,1.58,244.0,1.86,12.41,47.59359,-54.27349
2020-12-06 03:44:01+00:00,270.0,0.42,289.0,0.82,12.41,47.59359,-54.27349
2020-12-06 03:54:01+00:00,145.0,3.01,146.0,3.21,12.41,47.59359,-54.27349
2020-12-06 04:04:01+00:00,164.0,4.43,163.0,4.67,12.41,47.59359,-54.27349
2020-12-06 04:14:01+00:00,150.0,3.14,147.0,3.8,12.41,47.59359,-54.27349
2020-12-06 04:24:01+00:00,90.0,0.96,93.0,1.7,12.41,47.59359,-54.27349
2020-12-06 04:34:01+00:00,15.0,1.07,17.0,1.25,12.41,47.59359,-54.27349
2020-12-06 04:44:01+00:00,38.0,0.3,18.0,0.42,12.41,47.59359,-54.27349
2020-12-06 04:54:01+00:00,145.0,0.76,161.0,1.2,12.41,47.59359,-54.27349
2020-12-06 05:04:01+00:00,159.0,1.63,158.0,1.85,12.41,47.59359,-54.27349
2020-12-06 05:14:01+00:00,152.0,1.94,155.0,2.6,12.41,47.59359,-54.27349
2020-12-06 05:24:01+00:00,120.0,3.13,121.0,3.58,12.41,47.59359,-54.27349
2020-12-06 05:34:01+00:00,122.0,3.15,124.0,3.36,12.41,47.59359,-54.27349
2020-12-06 05:44:01+00:00,145.0,5.04,145.0,6.14,12.41,47.59359,-54.27349
2020-12-06 05:54:01+00:00,143.0,5.15,144.0,5.53,12.41,47.59359,-54.27349
2020-12-06 06:04:01+00:00,139.0,3.54,142.0,4.01,12.41,47.59359,-54.27349
2020-12-06 06:14:01+00:00,136.0,2.1,133.0,2.6,12.41,47.59359,-54.27349
2020-12-06 06:24:01+00:00,157.0,1.99,156.0,2.57,12.41,47.59359,-54.27349
2020-12-06 06:34:01+00:00,136.0,2.94,135.0,3.3,12.41,47.59359,-54.27349
2020-12-06 06:44:01+00:00,128.0,3.75,128.0,4.14,12.41,47.59359,-54.27349
2020-12-06 06:54:01+00:00,133.0,4.51,132.0,5.1,12.41,47.59359,-54.27349
2020-12-06 07:04:01+00:00,133.0,4.88,129.0,5.65,12.41,47.59359,-54.27349
2020-12-06 07:14:01+00:00,137.0,4.55,138.0,5.37,12.41,47.59359,-54.27349
2020-12-06 07:24:01+00:00,142.0,4.89,140.0,5.41,12.41,47.59359,-54.27349
2020-12-06 07:34:01+00:00,135.0,2.02,128.0,2.39,12.41,47.59359,-54.27349
2020-12-06 07:44:01+00:00,98.0,1.76,84.0,2.79,12.41,47.59359,-54.27349
2020-12-06 07:54:01+00:00,125.0,3.44,125.0,3.72,12.41,47.59359,-54.27349
2020-12-06 08:04:01+00:00,105.0,1.35,117.0,2.53,12.41,47.59359,-54.27349
2020-12-06 08:14:01+00:00,79.0,1.4,84.0,1.66,12.41,47.59359,-54.27349
2020-12-06 08:24:01+00:00,63.0,1.1,58.0,1.37,12.41,47.59359,-54.27349
2020-12-06 08:34:01+00:00,83.0,1.8,85.0,2.46,12.41,47.59359,-54.27349
2020-12-06 08:44:01+00:00,73.0,2.65,62.0,3.31,12.41,47.59359,-54.27349
2020-12-06 08:54:01+00:00,98.0,2.64,115.0,3.67,12.41,47.59359,-54.27349
2020-12-06 09:04:01+00:00,87.0,2.5,80.0,3.26,12.41,47.59359,-54.27349
2020-12-06 09:14:01+00:00,81.0,2.14,66.0,3.39,12.41,47.59359,-54.27349
2020-12-06 09:24:01+00:00,106.0,1.82,108.0,2.87,12.41,47.59359,-54.27349
2020-12-06 09:34:01+00:00,77.0,1.94,79.0,3.05,12.41,47.59359,-54.27349
2020-12-06 09:44:01+00:00,70.0,1.67,97.0,2.2,12.41,47.59359,-54.27349
2020-12-06 09:54:01+00:00,75.0,1.18,78.0,1.58,12.41,47.59359,-54.27349
2020-12-06 10:04:01+00:00,88.0,1.41,89.0,2.06,12.41,47.59359,-54.27349
2020-12-06 10:14:01+00:00,106.0,1.65,90.0,2.46,12.41,47.59359,-54.27349
2020-12-06 10:24:01+00:00,98.0,2.68,83.0,4.08,12.41,47.59359,-54.27349
2020-12-06 10:34:01+00:00,126.0,2.54,128.0,3.01,12.41,47.59359,-54.27349
2020-12-06 10:44:01+00:00,127.0,2.9,127.0,3.53,12.41,47.59359,-54.27349
2020-12-06 10:54:01+00:00,119.0,2.18,123.0,3.83,12.41,47.59359,-54.27349
2020-12-06 11:04:01+00:00,116.0,1.24,143.0,1.98,12.41,47.59359,-54.27349
2020-12-06 11:14:01+00:00,92.0,1.58,113.0,2.79,12.41,47.59359,-54.27349
2020-12-06 11:24:01+00:00,73.0,1.7,57.0,2.99,12.41,47.59359,-54.27349
2020-12-06 11:34:01+00:00,86.0,2.28,78.0,3.62,12.41,47.59359,-54.27349
2020-12-06 11:44:01+00:00,86.0,2.38,108.0,4.12,12.41,47.59359,-54.27349
2020-12-06 11:54:01+00:00,86.0,2.47,94.0,4.55,12.41,47.59359,-54.27349
2020-12-06 12:04:01+00:00,77.0,3.98,67.0,5.37,12.41,47.59359,-54.27349
2020-12-06 12:14:01+00:00,71.0,3.26,69.0,4.79,12.41,47.59359,-54.27349
2020-12-06 12:24:01+00:00,72.0,3.89,68.0,5.45,12.41,47.59359,-54.27349
2020-12-06 12:34:01+00:00,72.0,4.97,73.0,5.68,12.41,47.59359,-54.27349
2020-12-06 12:44:01+00:00,60.0,5.35,61.0,6.04,12.41,47.59359,-54.27349
2020-12-06 12:54:01+00:00,66.0,5.05,66.0,5.82,12.41,47.59359,-54.27349
2020-12-06 13:04:01+00:00,67.0,4.5,66.0,5.44,12.41,47.59359,-54.27349
2020-12-06 13:14:01+00:00,65.0,3.72,55.0,4.32,12.41,47.59359,-54.27349
2020-12-06 13:24:01+00:00,65.0,3.66,64.0,4.3,12.41,47.59359,-54.27349
2020-12-06 13:34:01+00:00,47.0,3.35,42.0,3.71,12.41,47.59359,-54.27349
2020-12-06 13:44:01+00:00,48.0,4.26,45.0,4.77,12.41,47.59359,-54.27349
2020-12-06 13:54:01+00:00,53.0,5.42,55.0,5.91,12.41,47.59359,-54.27349
2020-12-06 14:04:01+00:00,57.0,4.33,57.0,4.79,12.41,47.59359,-54.27349
2020-12-06 14:14:01+00:00,52.0,4.74,51.0,5.36,12.57,47.59359,-54.27349
2020-12-06 14:24:01+00:00,43.0,6.06,45.0,6.46,12.57,47.59359,-54.27349
2020-12-06 14:34:01+00:00,51.0,5.93,52.0,6.37,12.57,47.59359,-54.27349
2020-12-06 14:44:01+00:00,45.0,5.3,43.0,6.0,12.57,47.59359,-54.27349
2020-12-06 14:54:01+00:00,43.0,5.36,44.0,6.1,12.57,47.59359,-54.27349
2020-12-06 15:04:01+00:00,46.0,5.92,43.0,6.59,12.57,47.59359,-54.27349
2020-12-06 15:14:01+00:00,45.0,7.35,50.0,7.84,12.65,47.59359,-54.27349
2020-12-06 15:24:01+00:00,45.0,6.65,51.0,7.56,12.65,47.59359,-54.27349
2020-12-06 15:34:01+00:00,47.0,6.48,44.0,7.0,12.65,47.59359,-54.27349
2020-12-06 15:44:01+00:00,46.0,6.36,49.0,7.42,12.65,47.59359,-54.27349
2020-12-06 15:54:01+00:00,47.0,6.09,49.0,6.88,12.65,47.59359,-54.27349
2020-12-06 16:04:01+00:00,43.0,5.55,43.0,5.99,12.65,47.59359,-54.27349
2020-12-06 16:14:01+00:00,49.0,5.33,52.0,5.86,12.73,47.59359,-54.27349
2020-12-06 16:24:01+00:00,47.0,5.3,47.0,5.82,12.73,47.59359,-54.27349
2020-12-06 16:34:01+00:00,54.0,5.72,56.0,6.27,12.73,47.59359,-54.27349
2020-12-06 16:44:01+00:00,53.0,4.8,49.0,5.51,12.73,47.59359,-54.27349
2020-12-06 16:54:01+00:00,44.0,5.13,45.0,5.58,12.73,47.59359,-54.27349
2020-12-06 17:04:01+00:00,45.0,6.51,46.0,7.05,12.73,47.59359,-54.27349
2020-12-06 17:14:01+00:00,49.0,5.56,46.0,6.28,12.73,47.59359,-54.27349
2020-12-06 17:24:01+00:00,52.0,6.35,50.0,6.81,12.73,47.59359,-54.27349
2020-12-06 17:34:01+00:00,49.0,6.27,48.0,6.8,12.73,47.59359,-54.27349
2020-12-06 17:44:01+00:00,49.0,5.92,52.0,6.62,12.73,47.59359,-54.27349
2020-12-06 17:54:01+00:00,49.0,6.0,44.0,6.8,12.73,47.59359,-54.27349
2020-12-06 18:04:01+00:00,54.0,5.34,56.0,6.21,12.73,47.59359,-54.27349
2020-12-06 18:14:01+00:00,45.0,5.4,45.0,5.86,12.73,47.59359,-54.27349
2020-12-06 18:24:01+00:00,51.0,6.27,54.0,7.26,12.73,47.59359,-54.27349
2020-12-06 18:34:01+00:00,60.0,5.49,61.0,6.38,12.73,47.59359,-54.27349
2020-12-06 18:44:01+00:00,55.0,6.35,55.0,6.98,12.73,47.59359,-54.27349
2020-12-06 18:54:01+00:00,59.0,6.05,54.0,7.29,12.73,47.59359,-54.27349
2020-12-06 19:04:01+00:00,64.0,5.68,70.0,6.75,12.73,47.59359,-54.27349
2020-12-06 19:14:01+00:00,51.0,6.14,51.0,6.77,12.57,47.59359,-54.27349
2020-12-06 19:24:01+00:00,48.0,7.04,50.0,7.57,12.57,47.59359,-54.27349
2020-12-06 19:34:01+00:00,46.0,7.44,47.0,8.02,12.57,47.59359,-54.27349
2020-12-06 19:44:01+00:00,47.0,6.85,44.0,7.8,12.57,47.59359,-54.27349
2020-12-06 19:54:01+00:00,48.0,6.53,44.0,7.96,12.57,47.59359,-54.27349
2020-12-06 20:04:01+00:00,33.0,7.38,34.0,7.86,12.57,47.59359,-54.27349
2020-12-06 20:14:01+00:00,37.0,6.38,36.0,7.82,12.41,47.59359,-54.27349
2020-12-06 20:24:01+00:00,63.0,4.23,54.0,5.23,12.41,47.59359,-54.27349
2020-12-06 20:34:01+00:00,41.0,4.53,34.0,5.32,12.41,47.59359,-54.27349
2020-12-06 20:44:01+00:00,37.0,4.8,35.0,5.62,12.41,47.59359,-54.27349
2020-12-06 20:54:01+00:00,34.0,4.71,34.0,5.37,12.41,47.59359,-54.27349
2020-12-06 21:04:01+00:00,35.0,3.17,36.0,3.77,12.41,47.59359,-54.27349
2020-12-06 21:14:01+00:00,14.0,3.4,12.0,3.72,12.41,47.59359,-54.27349
2020-12-06 21:24:01+00:00,10.0,4.92,5.0,5.26,12.41,47.59359,-54.27349
2020-12-06 21:34:01+00:00,9.0,11.05,7.0,13.99,12.41,47.59359,-54.27349
2020-12-06 21:44:01+00:00,22.0,4.5,28.0,5.06,12.41,47.59359,-54.27349
2020-12-06 21:54:01+00:00,21.0,3.39,18.0,4.04,12.41,47.59359,-54.27349
2020-12-06 22:04:01+00:00,357.0,2.61,6.0,3.16,12.41,47.59359,-54.27349
2020-12-06 22:14:01+00:00,33.0,1.87,43.0,3.38,12.41,47.59359,-54.27349
2020-12-06 22:24:01+00:00,49.0,2.61,52.0,3.11,12.41,47.59359,-54.27349
2020-12-06 22:34:01+00:00,358.0,3.02,356.0,3.34,12.41,47.59359,-54.27349
2020-12-06 22:44:01+00:00,209.0,0.38,183.0,1.48,12.41,47.59359,-54.27349
2020-12-06 22:54:01+00:00,237.0,2.4,241.0,3.35,12.41,47.59359,-54.27349
2020-12-06 23:04:01+00:00,227.0,5.58,250.0,7.74,12.41,47.59359,-54.27349
2020-12-06 23:14:01+00:00,214.0,6.78,221.0,8.11,12.33,47.59359,-54.27349
2020-12-06 23:24:01+00:00,218.0,8.36,228.0,9.49,12.33,47.59359,-54.27349
2020-12-06 23:34:01+00:00,217.0,8.66,212.0,10.65,12.33,47.59359,-54.27349
2020-12-06 23:44:01+00:00,220.0,7.14,221.0,8.34,12.33,47.59359,-54.27349
2020-12-06 23:54:01+00:00,216.0,7.42,217.0,8.7,12.33,47.59359,-54.27349
